[[{"header":{"parameterUnit":"m.s-1","parameterCategory":1,"la1":30.2991,"la2":30.254,"lo1":-89.0895,"lo2":-89.0444,"dy":0.0017,"dx":0.0017,"nx":28,"ny":28,"refTime":"2025-01-18T09:00:00:Z","depth":0,"parameterNumber":2,"parameterNumberName":"U-component_of_WINDS"},"data":[0,0,0,0,0,0,0,0,0,0,0,0,0,0,0,0,0,0,0,0,0,0,0,0,0,0,0,0,0,0,0,0,0,0,0,0,0,0,0,0,0,0,0,0,0,0,0,0,0,0,0,0,0,0,0,0,0,0,2.2893,2.2893,0,2.2946,2.2947,2.2948,2.294,2.2939,2.2938,2.2937,2.2991,2.2994,2.2996,0,0,0,0,0,0,0,0,0,0,0,0,0,2.2784,2.2786,2.2893,2.2893,2.2894,2.2946,2.2947,2.2948,2.294,2.2939,2.2938,2.2937,2.2991,2.2993,2.2996,0,0,0,0,0,0,0,0,0,0,0,0,0,2.2834,2.2786,2.2892,2.2896,2.2897,2.2946,2.2947,2.2948,2.294,2.2939,2.2938,2.2936,2.299,2.2993,2.2997,2.3044,0,0,2.3007,2.3008,0,0,0,0,0,0,0,0,2.2831,2.2838,2.2895,2.2896,2.2897,2.2935,2.2928,2.298,2.2941,2.2924,2.2937,2.2936,2.2974,2.2978,2.2991,2.3047,2.3049,2.3007,2.3009,2.3011,2.3012,0,0,0,0,0,0,0,2.2827,2.2835,2.2914,2.2896,2.2897,2.2896,2.2901,2.2938,2.2956,2.2925,2.2925,2.2931,2.2974,2.2988,2.2993,2.305,2.3007,2.301,2.3012,2.3014,2.3149,2.3151,0,0,0,0,0,0,2.2823,2.2832,2.2912,2.2915,2.286,2.2899,2.2905,2.2924,2.2955,2.2959,2.2933,2.2931,2.2983,2.2989,2.2994,2.3053,2.3011,2.3014,2.3016,2.3148,2.315,2.3151,0,0,0,0,0,0,2.282,2.283,2.291,2.2874,2.2884,2.2902,2.2924,2.2926,2.294,2.2961,2.2964,2.2944,2.2982,2.299,2.3033,2.3055,2.3015,2.3019,2.3146,2.3148,2.3151,2.3171,0,0,0,0,0,0,2.2817,2.2829,2.2847,2.2874,2.2886,2.2947,2.2925,2.2928,2.2946,2.2945,2.2972,2.2975,2.2982,2.3027,2.3036,2.3059,2.3021,2.3144,2.3147,2.315,2.3168,2.3174,2.3178,0,0,0,0,0,2.2814,2.285,2.2848,2.2858,2.2909,2.2948,2.2955,2.2962,2.2948,2.2967,2.298,2.2974,2.3052,2.3032,2.3041,2.3066,2.3143,2.3146,2.315,2.3166,2.3173,2.3178,0,0,0,0,0,0,2.2825,2.2854,2.2852,2.2899,2.2921,2.2947,2.297,2.2968,2.2995,2.2992,2.2999,2.3006,2.3049,2.3062,2.304,2.3115,2.3095,2.3101,2.3105,2.3111,2.3116,2.3112,2.3024,0,0,0,0,0,2.2833,2.2862,2.2886,2.2925,2.2937,2.2952,2.2969,2.2973,2.2996,2.3005,2.3022,2.3045,2.3074,2.3093,2.3122,2.3171,2.3177,2.3192,2.3197,2.3201,2.3206,2.3234,2.3241,2.3163,2.3163,2.3163,0,0,2.285,2.2869,2.2887,2.2928,2.2946,2.2977,2.296,2.2992,2.3015,2.301,2.3052,2.3065,2.3091,2.3138,2.3159,2.315,2.3229,2.3206,2.3209,2.3211,2.3238,2.3246,2.3252,2.3165,2.3165,2.3164,0,0,2.2896,2.2913,2.2948,2.2967,2.2994,2.3005,2.3013,2.304,2.3048,2.3091,2.3088,2.3115,2.3166,2.3185,2.3201,2.3257,2.3253,2.3266,2.3291,2.3319,2.3325,2.333,2.335,2.3358,2.327,2.327,2.327,0,2.2913,2.2959,2.2966,2.3,2.3018,2.3016,2.3052,2.307,2.3105,2.3118,2.3107,2.3172,2.3189,2.324,2.3254,2.3267,2.3278,2.3262,2.3323,2.3329,2.3334,2.3354,2.3361,2.3272,2.3272,2.3271,2.3271,0,2.2979,2.3011,2.3036,2.3071,2.3092,2.3126,2.314,2.3161,2.3163,2.3174,2.3218,2.3239,2.3272,2.3285,2.3287,2.3337,2.333,2.3322,2.3302,2.3343,2.3361,2.3369,2.3274,2.3273,2.3273,2.3273,0,0,2.3031,2.3072,2.3081,2.3097,2.3128,2.3153,2.3188,2.3221,2.3239,2.3264,2.3294,2.3338,2.333,2.3349,2.3354,2.3377,2.3421,2.3366,2.3367,2.3375,2.3478,2.3484,2.3493,2.3419,2.342,2.3422,2.3476,0,2.308,2.3142,2.3151,2.3206,2.3236,2.3236,2.3266,2.3289,2.3301,2.3329,2.3342,2.3373,2.3361,2.3372,2.3396,2.3411,2.3442,2.3407,2.3447,2.3448,2.344,2.3502,2.3509,2.3559,2.3483,2.3485,2.3485,0,2.3145,2.3173,2.3231,2.3259,2.3272,2.33,2.3331,2.3358,2.3384,2.3391,2.3413,2.3415,2.3452,2.3432,2.3483,2.3459,2.3477,2.3487,2.3489,2.3492,2.3469,2.3507,2.3575,2.3583,2.3497,2.3496,2.3495,0,2.3178,2.323,2.3272,2.3286,2.332,2.3339,2.3355,2.338,2.3399,2.3427,2.344,2.3472,2.3489,2.3514,2.3525,2.3509,2.3576,2.3556,2.3583,2.3583,2.3596,2.3595,2.3667,2.3608,2.3608,2.3608,2.3608,0,2.3232,2.3267,2.3287,2.3313,2.3353,2.3363,2.3403,2.3417,2.344,2.3469,2.3471,2.3497,2.3511,2.354,2.3549,2.359,2.3598,2.3605,2.3607,2.3605,2.3604,2.3615,2.3612,2.361,2.3609,2.3609,2.3609,0,2.3275,2.329,2.3335,2.3364,2.3373,2.3401,2.3426,2.3451,2.3464,2.3501,2.351,2.353,2.3564,2.3578,2.362,2.3626,2.3674,2.3673,2.3665,2.3666,2.3692,2.3689,2.3774,2.3785,2.3718,2.3719,2.3719,0,2.3308,2.3335,2.3368,2.3388,2.3404,2.3435,2.3456,2.3468,2.3489,2.3522,2.3543,2.3578,2.3606,2.3662,2.368,2.3713,2.3713,2.374,2.3717,2.3715,2.3713,2.3711,2.3714,2.3744,2.3745,2.3745,2.3746,0,2.3365,2.3371,2.3401,2.3433,2.3458,2.3484,2.351,2.3526,2.3542,2.3566,2.3602,2.3624,2.3668,2.3703,2.3737,2.3752,2.3752,2.3753,2.3761,2.3759,2.3753,2.3757,2.3676,2.3751,2.375,2.375,2.375,2.3749,2.3404,2.3428,2.3456,2.3489,2.351,2.3534,2.356,2.3576,2.3606,2.3643,2.3649,2.3687,2.3714,2.376,2.3778,2.3808,2.3801,2.3812,2.3815,2.3818,2.382,2.3749,2.3814,2.3814,2.3814,2.3814,2.3814,0,2.3461,2.3479,2.3509,2.3546,2.3572,2.357,2.3599,2.3621,2.3655,2.3681,2.3709,2.3751,2.3785,2.3807,2.3842,2.3862,2.3863,2.3871,2.3869,2.3873,2.3824,2.3814,2.387,2.3869,2.3869,2.3869,2.3869,2.3869,2.3493,2.3535,2.3545,2.3598,2.3616,2.3654,2.3671,2.3694,2.3714,2.3761,2.379,2.3804,2.3828,2.3865,2.3897,2.3902,2.3915,2.3923,2.3928,2.3882,2.3876,2.3871,2.3861,2.3926,2.3926,2.3975,2.3975,2.3975]},{"header":{"parameterUnit":"m.s-1","parameterCategory":1,"la1":30.2991,"la2":30.254,"lo1":-89.0895,"lo2":-89.0444,"dy":0.0017,"dx":0.0017,"nx":28,"ny":28,"refTime":"2025-01-18T09:00:00:Z","depth":0,"parameterNumber":3,"parameterNumberName":"V-component_of_WINDS"},"data":[0,0,0,0,0,0,0,0,0,0,0,0,0,0,0,0,0,0,0,0,0,0,0,0,0,0,0,0,0,0,0,0,0,0,0,0,0,0,0,0,0,0,0,0,0,0,0,0,0,0,0,0,0,0,0,0,0,0,-8.2522,-8.2524,0,-8.2725,-8.2727,-8.273,-8.2663,-8.2659,-8.2654,-8.265,-8.2854,-8.2863,-8.2872,0,0,0,0,0,0,0,0,0,0,0,0,0,-8.2073,-8.2082,-8.2522,-8.2525,-8.2527,-8.2725,-8.2728,-8.273,-8.2664,-8.2659,-8.2653,-8.2648,-8.2851,-8.2862,-8.2873,0,0,0,0,0,0,0,0,0,0,0,0,0,-8.2271,-8.2085,-8.2522,-8.2518,-8.252,-8.2724,-8.2728,-8.2731,-8.2665,-8.2658,-8.2652,-8.2646,-8.2847,-8.2861,-8.2875,-8.3094,0,0,-8.2918,-8.2925,0,0,0,0,0,0,0,0,-8.226,-8.2288,-8.2516,-8.2519,-8.2521,-8.2662,-8.2644,-8.2853,-8.2667,-8.261,-8.265,-8.2643,-8.2795,-8.2813,-8.2866,-8.3104,-8.3112,-8.292,-8.2928,-8.2934,-8.2938,0,0,0,0,0,0,0,-8.2247,-8.2279,-8.2602,-8.2519,-8.2522,-8.2505,-8.2526,-8.2683,-8.2737,-8.2614,-8.261,-8.2635,-8.2795,-8.2852,-8.287,-8.3115,-8.2919,-8.2932,-8.2941,-8.2946,-8.3544,-8.3551,0,0,0,0,0,0,-8.2232,-8.2268,-8.2596,-8.2608,-8.2372,-8.2518,-8.2542,-8.2623,-8.2735,-8.2745,-8.264,-8.2631,-8.2831,-8.2853,-8.2877,-8.3141,-8.2934,-8.2948,-8.2956,-8.3536,-8.3545,-8.3553,0,0,0,0,0,0,-8.2223,-8.2262,-8.2588,-8.2437,-8.2477,-8.2533,-8.2625,-8.2631,-8.2688,-8.2755,-8.2763,-8.2689,-8.2827,-8.2857,-8.3041,-8.3147,-8.2954,-8.2967,-8.3528,-8.3539,-8.3549,-8.3672,0,0,0,0,0,0,-8.221,-8.2259,-8.2344,-8.244,-8.2486,-8.275,-8.2632,-8.264,-8.2713,-8.2703,-8.2802,-8.2813,-8.2824,-8.302,-8.3055,-8.3163,-8.2978,-8.3518,-8.3533,-8.3546,-8.3658,-8.3685,-8.3709,0,0,0,0,0,-8.2194,-8.2369,-8.2348,-8.2388,-8.2593,-8.2756,-8.2782,-8.2793,-8.2722,-8.2807,-8.285,-8.2809,-8.313,-8.304,-8.3078,-8.3193,-8.3512,-8.3529,-8.3545,-8.3647,-8.368,-8.3708,0,0,0,0,0,0,-8.2282,-8.2381,-8.236,-8.2571,-8.2656,-8.2745,-8.2852,-8.2827,-8.2933,-8.2919,-8.2926,-8.2949,-8.3139,-8.3184,-8.3081,-8.3411,-8.331,-8.3335,-8.3375,-8.3407,-8.3431,-8.3417,-8.299,0,0,0,0,0,-8.2327,-8.2452,-8.2531,-8.271,-8.2754,-8.2796,-8.2868,-8.2869,-8.2956,-8.2992,-8.3048,-8.3134,-8.3253,-8.3332,-8.3446,-8.3664,-8.3685,-8.3762,-8.3787,-8.3807,-8.3829,-8.3948,-8.3983,-8.3607,-8.3607,-8.3607,0,0,-8.2419,-8.2489,-8.2567,-8.273,-8.2796,-8.2925,-8.2827,-8.2967,-8.3063,-8.3012,-8.3191,-8.3235,-8.3331,-8.3533,-8.3625,-8.3577,-8.3937,-8.3828,-8.3844,-8.3855,-8.3969,-8.4004,-8.4036,-8.3618,-8.3616,-8.3615,0,0,-8.2653,-8.2719,-8.2875,-8.2944,-8.3045,-8.3072,-8.311,-8.3204,-8.3232,-8.3411,-8.3376,-8.3489,-8.3695,-8.3765,-8.3828,-8.409,-8.4057,-8.4127,-8.4258,-8.4374,-8.4404,-8.443,-8.4524,-8.4557,-8.4148,-8.4148,-8.4148,0,-8.2755,-8.2949,-8.2958,-8.3103,-8.3175,-8.3137,-8.3295,-8.336,-8.3494,-8.3544,-8.3488,-8.3747,-8.3809,-8.4028,-8.4092,-8.4144,-8.4186,-8.4116,-8.4399,-8.4425,-8.445,-8.454,-8.4575,-8.4156,-8.4155,-8.4154,-8.4154,0,-8.3069,-8.3205,-8.3318,-8.345,-8.3535,-8.3686,-8.3717,-8.3802,-8.3795,-8.3828,-8.4011,-8.4084,-8.4212,-8.4264,-8.4258,-8.4482,-8.4449,-8.4396,-8.4295,-8.4494,-8.4578,-8.4612,-8.4167,-8.4165,-8.4162,-8.416,0,0,-8.3365,-8.35,-8.3542,-8.3602,-8.3712,-8.3816,-8.3964,-8.4092,-8.4164,-8.4257,-8.4382,-8.4558,-8.451,-8.4581,-8.4583,-8.4685,-8.4889,-8.462,-8.4622,-8.4668,-8.514,-8.518,-8.5219,-8.4867,-8.4874,-8.4879,-8.5132,0,-8.3608,-8.3871,-8.3884,-8.4122,-8.4247,-8.4213,-8.4342,-8.4423,-8.4458,-8.4568,-8.4605,-8.4731,-8.4658,-8.4701,-8.48,-8.4843,-8.4984,-8.4825,-8.4982,-8.4988,-8.496,-8.5263,-8.5305,-8.5541,-8.5165,-8.5171,-8.5175,0,-8.3928,-8.4033,-8.4285,-8.4378,-8.4431,-8.4547,-8.4665,-8.4771,-8.4862,-8.488,-8.496,-8.4948,-8.5098,-8.4993,-8.52,-8.5092,-8.5157,-8.5188,-8.5197,-8.5213,-8.5094,-8.5287,-8.5616,-8.5652,-8.5227,-8.5222,-8.5219,0,-8.4119,-8.4323,-8.45,-8.4552,-8.4665,-8.4748,-8.4798,-8.4882,-8.4959,-8.5061,-8.511,-8.5229,-8.5294,-8.5385,-8.5404,-8.5325,-8.5613,-8.5508,-8.5631,-8.5631,-8.5693,-8.5689,-8.6038,-8.5735,-8.5734,-8.5734,-8.5733,0,-8.439,-8.4546,-8.4588,-8.4697,-8.487,-8.4883,-8.5053,-8.5097,-8.5173,-8.5289,-8.5266,-8.5375,-8.5394,-8.5508,-8.5523,-8.5693,-8.5722,-8.5741,-8.5743,-8.5743,-8.5741,-8.5786,-8.5771,-8.5743,-8.5741,-8.5739,-8.5738,0,-8.4633,-8.4668,-8.4859,-8.495,-8.4977,-8.51,-8.5178,-8.5282,-8.5314,-8.5462,-8.5497,-8.5547,-8.5679,-8.5708,-8.5864,-8.5874,-8.6077,-8.6063,-8.6047,-8.6046,-8.6168,-8.6156,-8.6558,-8.6612,-8.6273,-8.6276,-8.6279,0,-8.4804,-8.4923,-8.5028,-8.5105,-8.516,-8.5284,-8.5362,-8.5379,-8.5461,-8.5574,-8.5665,-8.5795,-8.59,-8.6112,-8.6162,-8.6281,-8.627,-8.6403,-8.6288,-8.6285,-8.6273,-8.6266,-8.6278,-8.6425,-8.6428,-8.6431,-8.6434,0,-8.5105,-8.5116,-8.523,-8.5351,-8.5445,-8.5541,-8.5631,-8.5695,-8.5724,-8.5817,-8.5954,-8.6035,-8.6196,-8.6325,-8.6445,-8.6495,-8.647,-8.647,-8.6505,-8.6506,-8.6493,-8.6502,-8.6107,-8.646,-8.6458,-8.6456,-8.6454,-8.6453,-8.5317,-8.5422,-8.5512,-8.564,-8.5711,-8.5796,-8.5899,-8.5945,-8.6059,-8.6192,-8.6195,-8.6343,-8.6431,-8.659,-8.6648,-8.6763,-8.6721,-8.6772,-8.6785,-8.6797,-8.6809,-8.6474,-8.6785,-8.6784,-8.6783,-8.6783,-8.6782,0,-8.5617,-8.5674,-8.5791,-8.592,-8.6021,-8.5989,-8.6088,-8.6174,-8.6306,-8.6391,-8.6495,-8.6652,-8.6777,-8.6837,-8.6961,-8.7042,-8.7033,-8.7074,-8.7068,-8.708,-8.6838,-8.6796,-8.7079,-8.7079,-8.7079,-8.7079,-8.7078,-8.7078,-8.5784,-8.596,-8.5982,-8.6192,-8.6248,-8.6395,-8.6454,-8.6533,-8.66,-8.6777,-8.6882,-8.692,-8.6995,-8.7124,-8.7238,-8.7252,-8.7299,-8.7345,-8.7354,-8.7127,-8.7097,-8.7068,-8.7029,-8.7355,-8.7356,-8.7586,-8.7588,-8.759]}]]